Location: Aldenham
(51.6667°N, 0.3500°W)
Time: 20:47:56
(UTC+00:00)

Vanguard 2 Rocket - Pass Details

Date: 16 February 2026
Orbit: 553 x 3286 km, 32.9° (Epoch: 8 March)

Event Time Altitude Azimuth Distance (km) Brightness Sun altitude
Rises 11:18:52 0° 203° (SSW) 7,247 12.3 24.9°
Reaches altitude 10° 11:26:00 10° 190° (S) 6,097 12.5 25.2°
Maximum altitude 11:37:13 20° 152° (SSE) 4,779 12.4 25.6°
Drops below altitude 10° 11:46:18 10° 114° (ESE) 4,854 11.1 25.8°
Sets 11:50:55 0° 98° (E) 5,404 11.0 25.9°
